Weather History for KMDJ - January, 2014

Change the Weather History Date:

Wednesday, January 29, 2014

  Actual Average Record
Temperature  
Mean Temperature 39 °F -  
Max Temperature 41 °F - - ()
Min Temperature 37 °F - - ()
Degree Days  
Heating Degree Days 26    
Moisture  
Dew Point 29 °F    
Average Humidity 69    
Maximum Humidity 93    
Minimum Humidity 56    
Precipitation  
Precipitation 0.00 in - - ()
Sea Level Pressure  
Sea Level Pressure 30.35 in    
Wind  
Wind Speed 29 mph (NNE)    
Max Wind Speed 38 mph    
Max Gust Speed 37 mph    
Visibility 10 miles    
Events      
T = Trace of Precipitation, MM = Missing Value Source: NWS Daily Summary

Daily Weather History Graph

Daily Weather History Graph

Search for Another Location

Airport or City:

Trip Planner

Search our weather history database for the weather conditions in past years. The results will help you decide how hot, cold, wet, or windy it might be!

Date:

Astronomy

Jan. 29, 2014 Rise Set
Actual Time 6:48 AM CST 5:36 PM CST
Civil Twilight 6:23 AM CST 6:00 PM CST
Nautical Twilight 5:55 AM CST 6:29 PM CST
Astronomical Twilight 5:27 AM CST 6:57 PM CST
Moon 5:24 AM CST (1/29) 4:35 PM CST (1/29)
Length of Visible Light 11h 37m
Length of Day
10h 47m
Waning Crescent, 2% of the Moon is Illuminated
Jan 29
Waning Crescent
Jan 30
New
Feb 6
First Quarter
Feb 14
Full
Feb 22
Last Quarter

Hourly Weather History & Observations

Time (CST) Temp. Windchill Dew Point Humidity Pressure Visibility Wind Dir Wind Speed Gust Speed Precip Events Conditions
12:15 AM 39.2 °F - 35.6 °F 87% 30.28 in 10.0 mi North - - N/A   Overcast
12:35 AM 39.2 °F 26.6 °F 37.4 °F 93% 30.27 in 10.0 mi North 34.5 mph - N/A   Overcast
12:55 AM 39.2 °F - 35.6 °F 87% 30.29 in 10.0 mi North - - N/A   Overcast
1:15 AM 39.2 °F 27.4 °F 35.6 °F 87% 30.28 in 10.0 mi NNE 29.9 mph 35.7 mph N/A   Overcast
1:35 AM 39.2 °F - 35.6 °F 87% 30.27 in 10.0 mi North - - N/A   Overcast
1:55 AM 39.2 °F 27.2 °F 37.4 °F 93% 30.28 in 10.0 mi NNE 31.1 mph 36.8 mph N/A   Overcast
2:15 AM 39.2 °F - 35.6 °F 87% 30.28 in 10.0 mi North - - N/A   Unknown
2:35 AM 39.2 °F - 35.6 °F 87% 30.29 in 10.0 mi North - - N/A   Unknown
2:55 AM 39.2 °F - 35.6 °F 87% 30.28 in 10.0 mi North - - N/A   Unknown
3:15 AM 39.2 °F - 33.8 °F 81% 30.29 in 10.0 mi North - - N/A   Unknown
3:35 AM 39.2 °F 27.0 °F 33.8 °F 81% 30.30 in 10.0 mi NNE 32.2 mph - N/A   Unknown
3:55 AM 37.4 °F - 33.8 °F 87% 30.31 in 10.0 mi North - - N/A   Overcast
4:15 AM 39.2 °F - 33.8 °F 81% 30.31 in 10.0 mi North - - N/A   Unknown
4:35 AM 39.2 °F - 32.0 °F 75% 30.31 in 10.0 mi North - - N/A   Overcast
4:55 AM 39.2 °F - 32.0 °F 75% 30.31 in 10.0 mi North - - N/A   Overcast
5:15 AM 39.2 °F - 30.2 °F 70% 30.29 in 10.0 mi North - - N/A   Mostly Cloudy
5:35 AM 39.2 °F 26.5 °F 30.2 °F 70% 30.28 in 10.0 mi NNE 35.7 mph - N/A   Unknown
5:55 AM 39.2 °F 26.1 °F 30.2 °F 70% 30.31 in 10.0 mi NNE 38.0 mph - N/A   Unknown
6:15 AM 39.2 °F - 30.2 °F 70% 30.33 in 10.0 mi North - - N/A   Unknown
6:35 AM 39.2 °F - 30.2 °F 70% 30.34 in 10.0 mi North - - N/A   Unknown
6:55 AM 39.2 °F - 30.2 °F 70% 30.32 in 10.0 mi North - - N/A   Unknown
7:15 AM 37.4 °F - 30.2 °F 75% 30.33 in 10.0 mi North - - N/A   Mostly Cloudy
7:35 AM 39.2 °F 27.8 °F 30.2 °F 70% 30.39 in 10.0 mi NNE 27.6 mph - N/A   Overcast
7:55 AM 39.2 °F - 30.2 °F 70% 30.40 in 10.0 mi North - - N/A   Overcast
8:15 AM 39.2 °F - 28.4 °F 65% 30.40 in 10.0 mi North - - N/A   Mostly Cloudy
8:35 AM 37.4 °F - 30.2 °F 75% 30.40 in 10.0 mi North - - N/A   Scattered Clouds
8:55 AM 39.2 °F - 32.0 °F 75% 30.40 in 10.0 mi North - - N/A   Mostly Cloudy
9:15 AM 39.2 °F - 30.2 °F 70% 30.41 in 10.0 mi North - - N/A   Mostly Cloudy
9:35 AM 37.4 °F - 28.4 °F 70% 30.40 in 10.0 mi North - - N/A   Scattered Clouds
9:55 AM 37.4 °F - 28.4 °F 70% 30.42 in 10.0 mi North - - N/A   Mostly Cloudy
10:15 AM 39.2 °F - 30.2 °F 70% 30.42 in 10.0 mi North - - N/A   Scattered Clouds
10:35 AM 37.4 °F 25.6 °F 28.4 °F 70% 30.42 in 10.0 mi NE 26.5 mph 34.5 mph N/A   Partly Cloudy
10:55 AM 39.2 °F - 26.6 °F 61% 30.41 in 10.0 mi North - - N/A   Clear
11:15 AM 39.2 °F - 26.6 °F 61% 30.42 in 10.0 mi North - - N/A   Clear
11:35 AM 39.2 °F - 28.4 °F 65% 30.42 in 10.0 mi North - - N/A   Clear
11:55 AM 39.2 °F - 26.6 °F 61% 30.41 in 10.0 mi North - - N/A   Partly Cloudy
12:15 PM 39.2 °F 28.3 °F 26.6 °F 61% 30.39 in 10.0 mi NNE 25.3 mph 33.4 mph N/A   Partly Cloudy
12:35 PM 37.4 °F - 26.6 °F 65% 30.38 in 10.0 mi North - - N/A   Scattered Clouds
12:55 PM 39.2 °F 27.8 °F 28.4 °F 65% 30.36 in 10.0 mi NNE 27.6 mph 33.4 mph N/A   Partly Cloudy
1:15 PM 37.4 °F - 26.6 °F 65% 30.36 in 10.0 mi North - - N/A   Partly Cloudy
1:35 PM 37.4 °F - 26.6 °F 65% 30.35 in 10.0 mi North - - N/A   Partly Cloudy
1:55 PM 37.4 °F - 26.6 °F 65% 30.35 in 10.0 mi North - - N/A   Scattered Clouds
2:15 PM 37.4 °F - 26.6 °F 65% 30.36 in 10.0 mi North - - N/A   Scattered Clouds
2:35 PM 37.4 °F - 26.6 °F 65% 30.35 in 10.0 mi North - - N/A   Scattered Clouds
2:55 PM 37.4 °F - 26.6 °F 65% 30.35 in 10.0 mi North - - N/A   Partly Cloudy
3:15 PM 37.4 °F 25.6 °F 26.6 °F 65% 30.34 in 10.0 mi NNE 26.5 mph - N/A   Partly Cloudy
3:35 PM 37.4 °F 25.9 °F 26.6 °F 65% 30.34 in 10.0 mi NNE 25.3 mph - N/A   Mostly Cloudy
3:55 PM 39.2 °F - 28.4 °F 65% 30.34 in 10.0 mi North - - N/A   Scattered Clouds
4:15 PM 39.2 °F - 26.6 °F 61% 30.34 in 10.0 mi North - - N/A   Partly Cloudy
4:35 PM 39.2 °F - 26.6 °F 61% 30.34 in 10.0 mi North - - N/A   Scattered Clouds
4:55 PM 39.2 °F - 28.4 °F 65% 30.34 in 10.0 mi North - - N/A   Overcast
5:15 PM 39.2 °F - 26.6 °F 61% 30.34 in 10.0 mi North - - N/A   Mostly Cloudy
5:35 PM 39.2 °F - 24.8 °F 56% 30.36 in 10.0 mi North - - N/A   Scattered Clouds
5:55 PM 39.2 °F - 26.6 °F 61% 30.35 in 10.0 mi North - - N/A   Unknown
6:15 PM 39.2 °F - 26.6 °F 61% 30.34 in 10.0 mi North - - N/A   Unknown
6:35 PM 39.2 °F - 26.6 °F 61% 30.36 in 10.0 mi North - - N/A   Unknown
6:55 PM 39.2 °F - 26.6 °F 61% 30.37 in 10.0 mi North - - N/A   Unknown
7:15 PM 39.2 °F - 26.6 °F 61% 30.37 in 10.0 mi North - - N/A   Unknown
7:35 PM 39.2 °F 29.0 °F 26.6 °F 61% 30.38 in 10.0 mi NNE 21.9 mph - N/A   Unknown
7:55 PM 39.2 °F - 26.6 °F 61% 30.37 in 10.0 mi North - - N/A   Unknown
8:15 PM 39.2 °F - 26.6 °F 61% 30.38 in 10.0 mi North - - N/A   Unknown
8:35 PM 41.0 °F 31.4 °F 26.6 °F 57% 30.37 in 10.0 mi NNE 21.9 mph - N/A   Partly Cloudy
8:55 PM 41.0 °F - 26.6 °F 57% 30.38 in 10.0 mi North - - N/A   Partly Cloudy
9:15 PM 41.0 °F - 26.6 °F 57% 30.38 in 10.0 mi North - - N/A   Partly Cloudy
9:35 PM 41.0 °F - 26.6 °F 57% 30.38 in 10.0 mi North - - N/A   Partly Cloudy
9:55 PM 41.0 °F 31.6 °F 26.6 °F 57% 30.38 in 10.0 mi NE 20.7 mph - N/A   Partly Cloudy
10:15 PM 41.0 °F - 26.6 °F 57% 30.38 in 10.0 mi North - - N/A   Partly Cloudy
10:35 PM 41.0 °F 32.2 °F 26.6 °F 57% 30.36 in 10.0 mi ENE 18.4 mph 24.2 mph N/A   Clear
10:55 PM 41.0 °F - 28.4 °F 61% 30.36 in 10.0 mi North - - N/A   Clear
11:15 PM 41.0 °F 32.2 °F 28.4 °F 61% 30.35 in 10.0 mi ENE 18.4 mph - N/A   Clear
11:35 PM 41.0 °F - 28.4 °F 61% 30.34 in 10.0 mi North - - N/A   Clear
11:55 PM 41.0 °F 32.8 °F 30.2 °F 65% 30.33 in 10.0 mi ENE 16.1 mph 21.9 mph N/A   Clear